Hourly Weather Gojsc

Today, 13 May, Thursday

Time Temperature Precipitation Wind Pressure Humidity
00:00 +12°C° 0 mm 5 mps 735 mmHg 81%
01:00 +10°C° 0 mm 5 mps 735 mmHg 80%
02:00 +10°C° 0 mm 4 mps 735 mmHg 81%
03:00 +9°C° 0 mm 3 mps 734 mmHg 81%
04:00 +9°C° 0 mm 3 mps 734 mmHg 82%
05:00 +10°C° 0 mm 3 mps 734 mmHg 80%
06:00 +11°C° 0 mm 4 mps 734 mmHg 78%
07:00 +12°C° 0 mm 4 mps 733 mmHg 75%
08:00 +13°C° 0 mm 4 mps 733 mmHg 71%
09:00 +16°C° 0 mm 3 mps 733 mmHg 67%
10:00 +17°C° 0 mm 3 mps 733 mmHg 63%
11:00 +18°C° 0 mm 3 mps 732 mmHg 61%
12:00 +19°C° 0 mm 3 mps 732 mmHg 58%
13:00 +20°C° 0 mm 2 mps 731 mmHg 55%
14:00 +19°C° 0 mm 3 mps 731 mmHg 61%
15:00 +18°C° 0 mm 3 mps 731 mmHg 67%
16:00 +17°C° 0 mm 3 mps 731 mmHg 73%
17:00 +17°C° 0.2 mm 3 mps 731 mmHg 78%
18:00 +16°C° 0.2 mm 3 mps 731 mmHg 82%
19:00 +14°C° 0.2 mm 3 mps 731 mmHg 87%
20:00 +13°C° 0.1 mm 3 mps 731 mmHg 89%
21:00 +12°C° 0.1 mm 3 mps 731 mmHg 92%
22:00 +11°C° 0.1 mm 3 mps 732 mmHg 94%
23:00 +11°C° 0 mm 4 mps 732 mmHg 95%

Tomorrow, 14 May, Friday

Time Temperature Precipitation Wind Pressure Humidity
00:00 +11°C° 0 mm 4 mps 732 mmHg 95%
01:00 +10°C° 0 mm 4 mps 732 mmHg 95%
02:00 +9°C° 0 mm 5 mps 733 mmHg 95%
03:00 +9°C° 0 mm 5 mps 733 mmHg 94%
04:00 +9°C° 0 mm 5 mps 733 mmHg 94%
05:00 +9°C° 0 mm 5 mps 734 mmHg 93%
06:00 +9°C° 0 mm 5 mps 734 mmHg 92%
07:00 +9°C° 0 mm 5 mps 734 mmHg 92%
08:00 +9°C° 0.1 mm 5 mps 735 mmHg 91%
09:00 +9°C° 0.1 mm 5 mps 735 mmHg 91%
10:00 +9°C° 0.1 mm 5 mps 736 mmHg 90%
11:00 +9°C° 0.1 mm 5 mps 736 mmHg 86%
12:00 +10°C° 0.1 mm 5 mps 736 mmHg 81%
13:00 +11°C° 0.1 mm 6 mps 737 mmHg 76%
14:00 +12°C° 0 mm 5 mps 737 mmHg 74%
15:00 +13°C° 0 mm 5 mps 737 mmHg 72%
16:00 +13°C° 0 mm 4 mps 737 mmHg 70%
17:00 +13°C° 0 mm 3 mps 737 mmHg 74%
18:00 +13°C° 0 mm 2 mps 737 mmHg 78%
19:00 +12°C° 0 mm 1 mps 737 mmHg 82%
20:00 +12°C° 0 mm 1 mps 737 mmHg 84%
21:00 +11°C° 0 mm 1 mps 738 mmHg 86%
22:00 +10°C° 0 mm 1 mps 738 mmHg 88%
23:00 +11°C° 0 mm 1 mps 738 mmHg 87%

Day after tomorrow, 15 May, Saturday

Time Temperature Precipitation Wind Pressure Humidity
00:00 +11°C° 0 mm 1 mps 738 mmHg 87%
01:00 +11°C° 0 mm 1 mps 738 mmHg 86%
02:00 +10°C° 0 mm 1 mps 738 mmHg 87%
03:00 +10°C° 0 mm 1 mps 738 mmHg 89%
04:00 +10°C° 0 mm 1 mps 739 mmHg 90%
05:00 +11°C° 0 mm 1 mps 739 mmHg 86%
06:00 +12°C° 0 mm 1 mps 739 mmHg 82%
07:00 +13°C° 0 mm 1 mps 739 mmHg 78%
08:00 +14°C° 0.1 mm 1 mps 739 mmHg 73%
09:00 +16°C° 0.1 mm 1 mps 739 mmHg 68%
10:00 +18°C° 0.1 mm 1 mps 739 mmHg 63%
11:00 +19°C° 0.3 mm 1 mps 739 mmHg 60%
12:00 +19°C° 0.3 mm 1 mps 739 mmHg 58%
13:00 +20°C° 0.3 mm 1 mps 739 mmHg 55%
14:00 +19°C° 0.6 mm 1 mps 738 mmHg 60%
15:00 +19°C° 0.6 mm 1 mps 738 mmHg 64%
16:00 +17°C° 0.6 mm 2 mps 738 mmHg 69%
17:00 +16°C° 0.4 mm 1 mps 738 mmHg 73%
18:00 +15°C° 0.4 mm 1 mps 738 mmHg 78%
19:00 +14°C° 0.4 mm 1 mps 738 mmHg 83%
20:00 +14°C° 0.2 mm 1 mps 738 mmHg 84%
21:00 +13°C° 0.2 mm 1 mps 738 mmHg 86%
22:00 +13°C° 0.2 mm 1 mps 738 mmHg 88%
23:00 +12°C° 0.1 mm 1 mps 738 mmHg 89%

16 May, Sunday

Time Temperature Precipitation Wind Pressure Humidity
00:00 +12°C° 0.1 mm 1 mps 738 mmHg 90%
01:00 +12°C° 0.1 mm 1 mps 738 mmHg 90%
02:00 +12°C° 0.1 mm 1 mps 738 mmHg 91%
03:00 +12°C° 0.1 mm 1 mps 738 mmHg 91%
04:00 +12°C° 0.1 mm 1 mps 738 mmHg 92%
05:00 +12°C° 0 mm 1 mps 738 mmHg 90%
06:00 +13°C° 0 mm 1 mps 738 mmHg 87%
07:00 +14°C° 0 mm 1 mps 738 mmHg 85%
08:00 +15°C° 0.1 mm 1 mps 738 mmHg 81%
09:00 +16°C° 0.1 mm 1 mps 738 mmHg 77%
10:00 +18°C° 0.1 mm 1 mps 738 mmHg 74%
11:00 +17°C° 0.5 mm 2 mps 738 mmHg 71%
12:00 +17°C° 0.5 mm 2 mps 738 mmHg 69%
13:00 +18°C° 0.5 mm 3 mps 738 mmHg 67%
14:00 +18°C° 0.4 mm 3 mps 738 mmHg 67%
15:00 +18°C° 0.4 mm 3 mps 737 mmHg 67%
16:00 +18°C° 0.4 mm 3 mps 737 mmHg 68%
17:00 +17°C° 0.4 mm 3 mps 737 mmHg 73%
18:00 +14°C° 0.4 mm 3 mps 737 mmHg 79%
19:00 +14°C° 0.4 mm 2 mps 737 mmHg 84%
20:00 +13°C° 0.4 mm 2 mps 737 mmHg 88%
21:00 +13°C° 0.4 mm 1 mps 738 mmHg 91%
22:00 +12°C° 0.4 mm 1 mps 738 mmHg 95%
23:00 +12°C° 0 mm 2 mps 738 mmHg 95%

17 May, Monday

Time Temperature Precipitation Wind Pressure Humidity
00:00 +10°C° 0 mm 2 mps 738 mmHg 95%
01:00 +10°C° 0 mm 3 mps 738 mmHg 95%
02:00 +9°C° 0 mm 3 mps 738 mmHg 95%
03:00 +9°C° 0 mm 3 mps 738 mmHg 95%
04:00 +8°C° 0 mm 3 mps 738 mmHg 95%
05:00 +9°C° 0 mm 3 mps 738 mmHg 90%
06:00 +10°C° 0 mm 3 mps 739 mmHg 85%
07:00 +12°C° 0 mm 4 mps 739 mmHg 80%
08:00 +13°C° 0 mm 4 mps 739 mmHg 72%
09:00 +14°C° 0 mm 4 mps 739 mmHg 65%
10:00 +15°C° 0 mm 5 mps 739 mmHg 58%
11:00 +17°C° 0 mm 4 mps 739 mmHg 55%
12:00 +18°C° 0 mm 4 mps 739 mmHg 53%
13:00 +18°C° 0 mm 3 mps 738 mmHg 50%
14:00 +18°C° 0.1 mm 3 mps 738 mmHg 52%
15:00 +18°C° 0.1 mm 3 mps 738 mmHg 55%
16:00 +18°C° 0.1 mm 2 mps 738 mmHg 57%
17:00 +17°C° 0 mm 2 mps 738 mmHg 61%
18:00 +16°C° 0 mm 2 mps 738 mmHg 66%
19:00 +15°C° 0 mm 1 mps 738 mmHg 71%
20:00 +14°C° 0 mm 1 mps 738 mmHg 74%
21:00 +13°C° 0 mm 1 mps 738 mmHg 77%
22:00 +12°C° 0 mm 1 mps 738 mmHg 80%
23:00 +11°C° 0 mm 1 mps 738 mmHg 83%

18 May, Tuesday

Time Temperature Precipitation Wind Pressure Humidity
00:00 +11°C° 0 mm 1 mps 738 mmHg 86%
01:00 +11°C° 0 mm 1 mps 738 mmHg 89%
02:00 +9°C° 0 mm 2 mps 738 mmHg 89%
03:00 +9°C° 0 mm 2 mps 738 mmHg 90%
04:00 +9°C° 0 mm 2 mps 738 mmHg 91%
05:00 +9°C° 0.7 mm 3 mps 738 mmHg 92%
06:00 +10°C° 0.7 mm 3 mps 738 mmHg 92%
07:00 +10°C° 0.7 mm 4 mps 739 mmHg 93%
08:00 +10°C° 2.1 mm 4 mps 739 mmHg 94%
09:00 +8°C° 2.1 mm 4 mps 739 mmHg 95%
10:00 +8°C° 2.1 mm 5 mps 739 mmHg 96%
11:00 +8°C° 1.6 mm 5 mps 739 mmHg 95%
12:00 +8°C° 1.6 mm 5 mps 739 mmHg 95%
13:00 +8°C° 1.6 mm 6 mps 739 mmHg 94%
14:00 +9°C° 0.3 mm 5 mps 740 mmHg 92%
15:00 +9°C° 0.3 mm 5 mps 740 mmHg 90%
16:00 +10°C° 0.3 mm 4 mps 740 mmHg 88%
17:00 +10°C° 0 mm 4 mps 740 mmHg 89%
18:00 +10°C° 0 mm 3 mps 740 mmHg 90%
19:00 +10°C° 0 mm 2 mps 741 mmHg 91%
20:00 +10°C° 0 mm 2 mps 741 mmHg 92%
21:00 +9°C° 0 mm 2 mps 741 mmHg 93%
22:00 +9°C° 0 mm 2 mps 741 mmHg 93%
23:00 +9°C° 0 mm 2 mps 742 mmHg 94%
Show more